EW2134 Weather Reports


Display with metric or nautical units.
time (UTC)temp
F
wind
direction
speed
MPH
gust
MPH
rain 1hr
in
rain 24hr
in
rain mn
in
humidity
%
barometer
mb
20181216171851 36 76 3.0 10.0 0.00 0.00 0.00 74 1021.8
20181216170359 36 78 2.0 8.0 0.00 0.00 0.00 74 1022.0
20181216164848 36 94 3.0 8.0 0.00 0.00 0.00 74 1022.2
20181216163355 36 75 5.0 10.0 0.00 0.00 0.00 74 1022.3
20181216154901 35 48 4.0 9.0 0.00 0.00 0.00 77 1023.0
20181216153346 35 44 4.0 9.0 0.00 0.00 0.00 79 1023.4
20181216151852 34 63 3.0 7.0 0.00 0.00 0.00 80 1023.4
20181216150343 34 34 1.0 9.0 0.00 0.00 0.00 82 1023.6
20181216144849 34 55 2.0 8.0 0.00 0.04 0.00 82 1023.6
20181216143357 33 24 3.0 8.0 0.00 0.04 0.00 84 1023.8
20181216141847 32 16 2.0 4.0 0.00 0.04 0.00 86 1023.9
20181216140354 31 355 2.0 5.0 0.00 0.04 0.00 88 1024.0
20181216134900 30 346 3.0 5.0 0.00 0.04 0.00 89 1024.1
20181216133351 28 342 2.0 7.0 0.00 0.04 0.00 89 1024.1
20181216131855 28 321 5.0 7.0 0.00 0.04 0.00 90 1023.9
20181216130343 28 319 4.0 8.0 0.00 0.04 0.00 90 1023.7
20181216124854 27 346 4.0 6.0 0.00 0.08 0.00 90 1023.3
20181216123342 27 346 3.0 10.0 0.00 0.08 0.00 90 1023.3
20181216121849 27 347 4.0 8.0 0.00 0.08 0.00 89 1023.3
20181216120401 27 344 4.0 7.0 0.00 0.08 0.00 89 1023.3
20181216114844 27 340 4.0 8.0 0.00 0.16 0.00 89 1023.2
20181216113352 27 342 3.0 6.0 0.00 0.16 0.00 89 1023.4
20181216111844 27 340 4.0 7.0 0.00 0.16 0.00 89 1023.4
20181216110351 27 343 3.0 6.0 0.00 0.16 0.00 89 1023.3
20181216104858 27 342 2.0 7.0 0.00 0.24 0.00 89 1023.4
20181216101855 28 329 4.0 7.0 0.00 0.24 0.00 87 1023.4
20181216100347 28 327 5.0 9.0 0.00 0.24 0.00 88 1023.2
20181216094850 28 332 3.0 7.0 0.00 0.39 0.00 88 1022.7
20181216093358 28 342 2.0 7.0 0.00 0.39 0.00 88 1022.5
20181216090359 27 342 2.0 6.0 0.00 0.39 0.00 87 1022.3
20181216084846 28 355 0.0 0.0 0.00 0.39 0.00 86 1022.5
20181216083358 28 355 0.0 3.0 0.00 0.39 0.00 86 1022.4
20181216081844 29 355 0.0 5.0 0.00 0.39 0.00 85 1022.0
20181216074853 29 323 2.0 3.0 0.00 0.39 0.00 84 1022.3
20181216073358 30 316 3.0 8.0 0.00 0.39 0.00 84 1022.3
20181216071842 30 355 4.0 8.0 0.00 0.39 0.00 83 1022.0
20181216070353 31 325 5.0 9.0 0.00 0.39 0.00 83 1022.1
20181216064858 31 339 3.0 10.0 0.00 0.39 0.00 83 1022.1
20181216063343 31 346 3.0 9.0 0.00 0.39 0.00 83 1021.7
20181216061854 31 339 6.0 12.0 0.00 0.39 0.00 83 1021.6
20181216060401 31 350 6.0 10.0 0.00 0.39 0.00 83 1021.2
20181216054847 31 360 5.0 10.0 0.00 0.39 0.00 83 1021.1
20181216053358 31 338 5.0 12.0 0.00 0.39 0.00 83 1020.9
20181216051844 32 327 6.0 12.0 0.00 0.39 0.00 82 1020.7
20181216050351 32 335 5.0 10.0 0.00 0.39 0.00 82 1020.4
20181216044900 32 332 5.0 10.0 0.00 0.39 0.00 82 1020.6
20181216043401 32 9 7.0 12.0 0.00 0.39 0.00 82 1020.7
20181216041844 32 346 4.0 11.0 0.00 0.39 0.00 81 1020.3
20181216040357 33 323 6.0 12.0 0.00 0.39 0.00 82 1020.4
20181216033349 33 344 9.0 15.0 0.00 0.43 0.08 82 1019.9
20181216031858 33 348 6.0 11.0 0.00 0.43 0.08 82 1020.1
20181216030346 33 338 6.0 10.0 0.00 0.43 0.08 81 1019.8
20181216024852 34 331 8.0 12.0 0.00 0.43 0.08 81 1019.6
20181216023343 34 328 6.0 13.0 0.00 0.43 0.08 80 1019.7
20181216021849 34 349 5.0 11.0 0.00 0.43 0.08 81 1019.5
20181216020355 34 351 6.0 12.0 0.00 0.43 0.08 81 1019.2
20181216014843 34 314 4.0 8.0 0.00 0.43 0.08 82 1019.0
20181216013351 35 337 3.0 13.0 0.00 0.43 0.08 82 1019.1
20181216011856 35 321 4.0 11.0 0.00 0.43 0.08 82 1019.2
20181216010345 35 325 5.0 12.0 0.00 0.43 0.08 82 1019.0
20181216004851 36 309 4.0 11.0 0.00 0.43 0.08 83 1019.0
20181216003358 35 325 3.0 7.0 0.00 0.43 0.08 83 1018.8
20181216001849 34 5 1.0 6.0 0.00 0.43 0.08 82 1018.6
20181216000356 34 336 0.0 3.0 0.00 0.43 0.08 82 1018.4
20181215234841 34 326 2.0 6.0 0.00 0.43 0.08 82 1018.5
20181215233352 34 315 1.0 5.0 0.00 0.43 0.08 82 1018.4
20181215231858 35 331 2.0 7.0 0.00 0.43 0.08 82 1018.5
20181215230345 35 319 0.0 5.0 0.00 0.43 0.08 81 1018.3
20181215224855 35 316 0.0 4.0 0.00 0.43 0.08 80 1018.0
20181215223343 36 323 0.0 5.0 0.00 0.43 0.08 80 1018.0
20181215221847 36 323 2.0 7.0 0.00 0.43 0.08 80 1018.0
20181215220358 36 291 2.0 8.0 0.00 0.43 0.08 79 1017.7
20181215214858 36 329 5.0 11.0 0.00 0.43 0.08 80 1017.9
20181215213343 36 314 6.0 12.0 0.00 0.43 0.08 81 1017.7
20181215211854 36 335 3.0 6.0 0.00 0.43 0.08 81 1017.5
20181215210401 37 321 3.0 6.0 0.00 0.43 0.08 81 1017.3
20181215204845 37 325 1.0 3.0 0.00 0.43 0.08 81 1016.9
20181215203359 37 327 2.0 7.0 0.00 0.43 0.08 81 1016.8
20181215201844 38 340 3.0 12.0 0.00 0.43 0.08 83 1016.2
20181215200351 38 323 4.0 12.0 0.00 0.43 0.08 83 1016.0
20181215194841 38 317 5.0 11.0 0.00 0.43 0.08 83 1015.7
20181215193349 39 283 4.0 14.0 0.00 0.43 0.08 83 1015.2
20181215191855 39 325 5.0 17.0 0.00 0.43 0.08 84 1015.2
20181215190347 39 321 6.0 14.0 0.00 0.43 0.08 85 1014.8
20181215184853 39 312 9.0 14.0 0.00 0.43 0.08 86 1014.8
20181215183400 40 331 6.0 18.0 0.00 0.43 0.08 86 1014.4
20181215181849 40 300 7.0 14.0 0.00 0.43 0.08 87 1014.3
20181215180356 39 305 8.0 16.0 0.00 0.43 0.08 88 1014.1
20181215174843 39 292 7.0 16.0 0.00 0.43 0.08 88 1013.8